Find Local Weather

World > North America > United States > North Dakota

Colgan, North Dakota Regional Weather

Lat: 48.95N, Lon: 103.63W
Wx Zone: NDZ001
Warning FLW WEATHER ALERT - (More Info. Click Here) Warning
Feedback

Colgan, ND Regional Weather

Expires:201905260100;;461728
ASUS43 KBIS 260031
RWRND 
NORTH DAKOTA REGIONAL WEATHER ROUNDUP
NATIONAL WEATHER SERVICE EASTERN NORTH DAKOTA/GRAND FORKS ND
700 PM CDT SAT MAY 25 2019

  NOTE: "FAIR" INDICATES FEW OR NO CLOUDS BELOW 12,000 FEET WITH NO
  SIGNIFICANT WEATHER AND/OR OBSTRUCTIONS TO VISIBILITY.


NDZ001>003-009>011-017-260100-
...NORTHWEST NORTH DAKOTA...
  
CITY           SKY/WX    TMP DP  RH WIND       PRES   REMARKS
WILLISTON      PTSUNNY   71  41  33 SW9       29.90R                  
6HR MIN TEMP:  66; 6HR MAX TEMP:  74;                                

MINOT          FAIR      72  45  37 S13       29.89S                  
MINOT AFB      MOSUNNY   63  48  59 N13G18    29.90R                  
6HR MIN TEMP:  62; 6HR MAX TEMP:  72;                                

$$


SKY/WX - Weather  TMP - Temperature  DP - Dew Point  RH - Relative Humidity
WIND - Wind Direction/Speed PRES - Barometric Pressure VSB - Visibility
WCI - Wind Chill Index E13G22 Wind - East Wind 13 mph/Gusts of 22 mph